RYR76MK EPKT-EGSS

Flight info

Callsign RYR76MK
Flight time N/A
Altitude 38000
Route OMFOL T738 DINOV DCT NAROX DCT KUMER DCT NOGRO M40 RINIS
Aircraft B737/M-SDE2E3FGHIRWXY/LB1

Departure

Time N/A
Airport Katowice Wojciech Korfanty International Airport (EPKT)

Arrival

Time 2026-05-04 19:56
Airport London Stansted Airport (EGSS)
Time Latitude Longitude Altitude Speed Heading
2026-05-04 18:58 51.71216 8.46518 35990 ft 414 kts 273°
2026-05-04 18:58 51.71542 8.41910 35967 ft 414 kts 272°
2026-05-04 18:59 51.72187 8.32680 35967 ft 414 kts 272°
2026-05-04 18:59 51.72826 8.23453 35981 ft 414 kts 272°
2026-05-04 19:00 51.73458 8.14195 35968 ft 414 kts 272°
2026-05-04 19:00 51.74082 8.04961 35966 ft 414 kts 272°
2026-05-04 19:01 51.74699 7.95717 35965 ft 414 kts 272°
2026-05-04 19:01 51.75306 7.86523 35965 ft 415 kts 272°
2026-05-04 19:02 51.75910 7.77257 35973 ft 415 kts 272°
2026-05-04 19:02 51.76506 7.67986 35965 ft 415 kts 272°
2026-05-04 19:03 51.77097 7.58687 35968 ft 416 kts 272°
2026-05-04 19:03 51.77677 7.49441 35970 ft 417 kts 271°
2026-05-04 19:04 51.78255 7.40108 35963 ft 418 kts 271°
2026-05-04 19:04 51.78827 7.30760 35962 ft 418 kts 271°
2026-05-04 19:05 51.79392 7.21388 35966 ft 419 kts 271°
2026-05-04 19:05 51.79951 7.11993 35959 ft 421 kts 271°
2026-05-04 19:06 51.80503 7.02578 35961 ft 421 kts 271°
2026-05-04 19:06 51.81047 6.93189 35957 ft 422 kts 271°
2026-05-04 19:07 51.81587 6.83725 35953 ft 423 kts 271°
2026-05-04 19:07 51.82120 6.74258 35961 ft 423 kts 271°
2026-05-04 19:08 51.82646 6.64776 35959 ft 424 kts 271°
2026-05-04 19:08 51.83165 6.55278 35960 ft 424 kts 271°
2026-05-04 19:09 51.83673 6.45833 35959 ft 424 kts 271°
2026-05-04 19:09 51.84177 6.36331 35960 ft 424 kts 271°
2026-05-04 19:10 51.84672 6.26824 35962 ft 425 kts 271°
2026-05-04 19:10 51.85161 6.17303 35969 ft 425 kts 271°
2026-05-04 19:11 51.85563 6.09370 35969 ft 426 kts 271°
2026-05-04 19:11 51.86039 5.99822 35958 ft 426 kts 271°
2026-05-04 19:12 51.86740 5.85465 35960 ft 427 kts 270°
2026-05-04 19:13 51.87198 5.75880 35973 ft 428 kts 271°
2026-05-04 19:13 51.87650 5.66260 35968 ft 429 kts 271°
2026-05-04 19:14 51.88094 5.56628 35966 ft 429 kts 270°
2026-05-04 19:14 51.88529 5.47034 35961 ft 430 kts 270°
2026-05-04 19:15 51.88960 5.37361 35964 ft 430 kts 270°
2026-05-04 19:15 51.89383 5.27682 35967 ft 431 kts 270°
2026-05-04 19:16 51.89798 5.18000 35974 ft 431 kts 270°
2026-05-04 19:16 51.90205 5.08307 35969 ft 432 kts 270°
2026-05-04 19:17 51.90605 4.98602 35976 ft 432 kts 270°
2026-05-04 19:17 51.90994 4.88960 35975 ft 432 kts 270°
2026-05-04 19:18 51.91378 4.79248 35970 ft 432 kts 270°
2026-05-04 19:18 51.91754 4.69531 35975 ft 432 kts 270°
2026-05-04 19:19 51.92122 4.59818 35969 ft 432 kts 270°
2026-05-04 19:19 51.92482 4.50099 35967 ft 432 kts 270°
2026-05-04 19:20 51.92835 4.40366 35968 ft 432 kts 270°
2026-05-04 19:20 51.93179 4.30632 35968 ft 432 kts 270°
2026-05-04 19:21 51.93513 4.20958 35969 ft 432 kts 270°
2026-05-04 19:21 51.93841 4.11235 35975 ft 432 kts 270°
2026-05-04 19:22 51.94162 4.01507 35984 ft 432 kts 270°
2026-05-04 19:22 51.94474 3.91774 35990 ft 432 kts 270°
2026-05-04 19:23 51.94778 3.82046 36005 ft 432 kts 270°
2026-05-04 19:23 51.95072 3.72374 35999 ft 432 kts 270°
2026-05-04 19:24 51.95360 3.62643 35821 ft 432 kts 270°
2026-05-04 19:24 51.95501 3.57796 35455 ft 426 kts 270°
2026-05-04 19:24 51.95639 3.52997 34956 ft 422 kts 270°
2026-05-04 19:24 51.95771 3.48326 34527 ft 418 kts 270°
2026-05-04 19:25 51.95902 3.43638 34073 ft 413 kts 270°
2026-05-04 19:25 51.96029 3.39004 33568 ft 409 kts 269°
2026-05-04 19:25 51.96152 3.34414 33056 ft 405 kts 269°
2026-05-04 19:25 51.96274 3.29870 32616 ft 400 kts 269°
2026-05-04 19:26 51.96392 3.25378 32146 ft 397 kts 269°
2026-05-04 19:26 51.96507 3.20931 31696 ft 393 kts 269°
2026-05-04 19:26 51.96582 3.16518 31254 ft 388 kts 264°
2026-05-04 19:26 51.96387 3.12188 30804 ft 384 kts 261°
2026-05-04 19:27 51.96088 3.07897 30363 ft 381 kts 259°
2026-05-04 19:27 51.95769 3.03644 29912 ft 379 kts 259°
2026-05-04 19:27 51.95457 2.99414 29412 ft 376 kts 260°
2026-05-04 19:27 51.95159 2.95233 28968 ft 371 kts 260°
2026-05-04 19:28 51.94754 2.91195 28520 ft 364 kts 249°
2026-05-04 19:28 51.93604 2.87637 28127 ft 353 kts 229°
2026-05-04 19:28 51.91864 2.84883 27783 ft 346 kts 219°
2026-05-04 19:28 51.90001 2.82463 27498 ft 341 kts 217°
2026-05-04 19:29 51.88112 2.80114 27268 ft 349 kts 217°
2026-05-04 19:29 51.86140 2.77689 27085 ft 361 kts 217°
2026-05-04 19:29 51.84120 2.75223 27037 ft 367 kts 217°
2026-05-04 19:29 51.82074 2.72735 27012 ft 367 kts 217°
2026-05-04 19:30 51.80224 2.69923 26999 ft 366 kts 233°
2026-05-04 19:30 51.79051 2.66261 26712 ft 371 kts 252°
2026-05-04 19:30 51.78631 2.62149 26351 ft 372 kts 264°
2026-05-04 19:30 51.78497 2.57966 25836 ft 374 kts 266°
2026-05-04 19:31 51.78415 2.53779 25347 ft 372 kts 266°
2026-05-04 19:31 51.78468 2.49623 24841 ft 371 kts 277°
2026-05-04 19:31 51.79094 2.45600 24470 ft 366 kts 285°
2026-05-04 19:31 51.79876 2.41719 24091 ft 361 kts 286°
2026-05-04 19:32 51.80661 2.37898 23701 ft 356 kts 286°
2026-05-04 19:32 51.81418 2.34113 23272 ft 352 kts 285°
2026-05-04 19:32 51.82148 2.30346 22840 ft 349 kts 285°
2026-05-04 19:32 51.82845 2.26656 22405 ft 347 kts 285°
2026-05-04 19:33 51.83536 2.22930 21989 ft 345 kts 285°
2026-05-04 19:33 51.84218 2.19221 21567 ft 343 kts 284°
2026-05-04 19:33 51.84892 2.15536 21154 ft 341 kts 284°
2026-05-04 19:33 51.85560 2.11868 20747 ft 339 kts 284°
2026-05-04 19:34 51.86222 2.08216 20342 ft 338 kts 284°
2026-05-04 19:34 51.86882 2.04581 19952 ft 336 kts 284°
2026-05-04 19:34 51.87536 2.00965 19553 ft 334 kts 284°
2026-05-04 19:34 51.88187 1.97364 19169 ft 333 kts 284°
2026-05-04 19:35 51.88835 1.93772 18791 ft 332 kts 284°
2026-05-04 19:35 51.89478 1.90191 18422 ft 331 kts 284°
2026-05-04 19:35 51.90023 1.86590 18031 ft 328 kts 278°
2026-05-04 19:35 51.90406 1.82966 17628 ft 326 kts 277°
2026-05-04 19:36 51.90743 1.79339 17233 ft 325 kts 277°
2026-05-04 19:36 51.91071 1.75725 16844 ft 324 kts 277°
2026-05-04 19:36 51.91400 1.72123 16466 ft 323 kts 277°
2026-05-04 19:36 51.91731 1.68534 16077 ft 322 kts 278°
2026-05-04 19:37 51.92066 1.64945 15704 ft 320 kts 278°
2026-05-04 19:37 51.92401 1.61381 15317 ft 319 kts 278°
2026-05-04 19:37 51.92735 1.57837 14955 ft 318 kts 278°
2026-05-04 19:37 51.93068 1.54307 14597 ft 316 kts 278°
2026-05-04 19:38 51.93399 1.50793 14237 ft 315 kts 279°
2026-05-04 19:38 51.93729 1.47283 13877 ft 314 kts 279°
2026-05-04 19:38 51.94052 1.43842 13491 ft 312 kts 278°
2026-05-04 19:38 51.94378 1.40370 13103 ft 311 kts 278°
2026-05-04 19:39 51.94700 1.36917 12702 ft 309 kts 278°
2026-05-04 19:39 51.95020 1.33481 12320 ft 306 kts 278°
2026-05-04 19:39 51.95335 1.30079 11936 ft 304 kts 278°
2026-05-04 19:39 51.95647 1.26706 11559 ft 300 kts 278°
2026-05-04 19:40 51.95954 1.23371 11175 ft 298 kts 278°
2026-05-04 19:40 51.96259 1.20058 10805 ft 295 kts 278°
2026-05-04 19:40 51.96559 1.16781 10444 ft 293 kts 278°
2026-05-04 19:40 51.96856 1.13525 10078 ft 291 kts 278°
2026-05-04 19:41 51.97151 1.10287 9700 ft 289 kts 278°
2026-05-04 19:41 51.97442 1.07071 9306 ft 287 kts 278°
2026-05-04 19:41 51.97730 1.03887 9071 ft 284 kts 278°
2026-05-04 19:41 51.98018 1.00687 9048 ft 289 kts 278°
2026-05-04 19:42 51.98307 0.97474 9032 ft 287 kts 278°
2026-05-04 19:42 51.98596 0.94245 8759 ft 291 kts 278°
2026-05-04 19:42 51.98886 0.90995 8500 ft 290 kts 278°
2026-05-04 19:42 51.99172 0.87780 8240 ft 285 kts 278°
2026-05-04 19:43 51.99447 0.84686 8080 ft 274 kts 278°
2026-05-04 19:43 51.99558 0.81631 8030 ft 270 kts 261°
2026-05-04 19:43 51.98890 0.78849 8050 ft 264 kts 240°
2026-05-04 19:43 51.97886 0.76383 8033 ft 260 kts 237°
2026-05-04 19:44 51.96850 0.73977 8047 ft 260 kts 236°
2026-05-04 19:44 51.95804 0.71571 8048 ft 261 kts 236°
2026-05-04 19:44 51.94754 0.69165 8048 ft 262 kts 236°
2026-05-04 19:44 51.93699 0.66751 8053 ft 263 kts 236°
2026-05-04 19:45 51.92638 0.64326 8047 ft 264 kts 236°
2026-05-04 19:45 51.91573 0.61892 7941 ft 268 kts 236°
2026-05-04 19:45 51.90491 0.59420 7595 ft 268 kts 236°
2026-05-04 19:45 51.89436 0.57016 7215 ft 262 kts 236°
2026-05-04 19:46 51.88388 0.54639 6843 ft 257 kts 236°
2026-05-04 19:46 51.87347 0.52293 6484 ft 256 kts 236°
2026-05-04 19:46 51.86304 0.49955 6094 ft 256 kts 236°
2026-05-04 19:46 51.85265 0.47628 5711 ft 255 kts 236°
2026-05-04 19:47 51.84232 0.45303 5333 ft 254 kts 236°
2026-05-04 19:47 51.83204 0.42980 5003 ft 254 kts 236°
2026-05-04 19:47 51.82183 0.40670 4693 ft 251 kts 236°
2026-05-04 19:47 51.81175 0.38378 4377 ft 249 kts 236°
2026-05-04 19:48 51.80182 0.36107 4101 ft 245 kts 236°
2026-05-04 19:48 51.79210 0.33867 3879 ft 242 kts 236°
2026-05-04 19:48 51.78254 0.31662 3635 ft 239 kts 236°
2026-05-04 19:48 51.77311 0.29476 3395 ft 235 kts 236°
2026-05-04 19:49 51.76389 0.27329 3229 ft 230 kts 236°
2026-05-04 19:49 51.75493 0.25227 3068 ft 223 kts 236°
2026-05-04 19:49 51.74629 0.23195 2901 ft 217 kts 236°
2026-05-04 19:49 51.73786 0.21212 2712 ft 210 kts 236°
2026-05-04 19:50 51.73240 0.19108 2468 ft 201 kts 270°
2026-05-04 19:50 51.73525 0.17017 2284 ft 188 kts 297°
2026-05-04 19:50 51.74080 0.15155 2101 ft 180 kts 300°
2026-05-04 19:50 51.74612 0.13407 1995 ft 166 kts 300°
2026-05-04 19:51 51.75141 0.11750 2007 ft 164 kts 310°
2026-05-04 19:51 51.75836 0.10360 2004 ft 160 kts 314°
2026-05-04 19:51 51.76547 0.08970 2008 ft 161 kts 314°
2026-05-04 19:51 51.77263 0.07587 1995 ft 160 kts 316°
2026-05-04 19:52 51.78184 0.06809 1987 ft 146 kts
2026-05-04 19:52 51.78990 0.07648 2015 ft 148 kts 65°
2026-05-04 19:52 51.79420 0.09190 1989 ft 153 kts 50°
2026-05-04 19:52 51.80115 0.10448 1993 ft 148 kts 48°
2026-05-04 19:53 51.80783 0.11693 1992 ft 145 kts 49°
2026-05-04 19:53 51.81476 0.12870 1987 ft 145 kts 44°
2026-05-04 19:53 51.82229 0.14035 1848 ft 154 kts 43°
2026-05-04 19:53 51.82987 0.15183 1667 ft 144 kts 42°
2026-05-04 19:54 51.83698 0.16253 1473 ft 137 kts 43°
2026-05-04 19:54 51.84357 0.17246 1297 ft 126 kts 42°
2026-05-04 19:54 51.84780 0.17882 1184 ft 126 kts 42°
2026-05-04 19:54 51.85430 0.18886 1036 ft 131 kts 43°
2026-05-04 19:55 51.86317 0.20224 758 ft 131 kts 40°
2026-05-04 19:55 51.86771 0.20900 626 ft 132 kts 41°
2026-05-04 19:55 51.87448 0.21917 455 ft 134 kts 40°
2026-05-04 19:55 51.88112 0.22900 336 ft 121 kts 40°
2026-05-04 19:56 51.88633 0.23676 340 ft 80 kts 43°
2026-05-04 19:56 51.88939 0.24142 348 ft 50 kts 43°
2026-05-04 19:56 51.89077 0.24438 345 ft 28 kts 66°
2026-05-04 19:56 51.89126 0.24638 349 ft 6 kts 68°
2026-05-04 19:57 51.89136 0.24677 350 ft 0 kts 68°
2026-05-04 19:58 51.89137 0.24679 350 ft 1 kts 68°
2026-05-04 19:59 51.89142 0.24701 342 ft 4 kts 68°
2026-05-04 19:59 51.89156 0.24759 351 ft 8 kts 68°
2026-05-04 19:59 51.89163 0.24861 342 ft 11 kts 108°